Time,TemperatureF,DewpointF,PressureIn,WindDirection,WindDirectionDegrees,WindSpeedMPH,WindSpeedGustMPH,Humidity,HourlyPrecipIn,Conditions,Clouds,dailyrainin,SoftwareType,DateUTC
2013-06-26 00:31:00,67.0,64.5,29.81,SSW,194,1.0,8.2,92,0.05,,BKN,0.00,VWS V14.00,2013-06-26 04:31:00,
2013-06-26 00:33:00,67.0,64.5,29.81,SSW,194,1.0,8.2,92,0.05,,BKN,0.00,VWS V14.00,2013-06-26 04:33:00,
2013-06-26 00:36:00,67.0,64.5,29.81,SSW,194,1.0,8.2,92,0.05,,BKN,0.00,VWS V14.00,2013-06-26 04:36:00,
2013-06-26 00:41:00,67.0,64.5,29.81,SSW,194,1.0,8.2,92,0.05,,BKN,0.00,VWS V14.00,2013-06-26 04:41:00,
2013-06-26 01:01:00,66.8,64.5,29.81,SSE,160,1.0,8.2,92,0.05,,BKN,0.00,VWS V14.00,2013-06-26 05:01:00,
2013-06-26 01:06:00,66.8,64.5,29.80,South,169,0.0,8.2,92,0.05,,BKN,0.00,VWS V14.00,2013-06-26 05:06:00,
2013-06-26 01:11:00,66.8,64.5,29.80,South,169,0.0,8.2,92,0.05,,BKN,0.00,VWS V14.00,2013-06-26 05:11:00,
2013-06-26 01:31:00,66.7,64.4,29.81,South,181,0.0,8.2,92,0.05,,BKN,0.00,VWS V14.00,2013-06-26 05:31:00,
2013-06-26 01:36:00,66.7,64.4,29.81,South,183,1.8,8.2,92,0.05,,BKN,0.00,VWS V14.00,2013-06-26 05:36:00,
2013-06-26 01:41:00,66.7,64.4,29.81,South,183,1.8,8.2,92,0.05,,BKN,0.00,VWS V14.00,2013-06-26 05:41:00,
2013-06-26 02:01:00,66.8,64.6,29.81,East,100,0.0,8.2,93,0.05,,BKN,0.00,VWS V14.00,2013-06-26 06:01:00,
2013-06-26 02:03:00,66.8,64.6,29.81,East,100,0.0,8.2,93,0.05,,BKN,0.00,VWS V14.00,2013-06-26 06:03:00,
2013-06-26 02:06:00,66.8,64.6,29.81,East,100,0.0,8.2,93,0.05,,BKN,0.00,VWS V14.00,2013-06-26 06:06:00,
2013-06-26 02:11:00,66.8,64.6,29.81,East,100,0.0,8.2,93,0.05,,BKN,0.00,VWS V14.00,2013-06-26 06:11:00,
2013-06-26 04:02:00,66.5,64.5,29.81,East,100,0.0,8.2,93,0.05,,BKN,0.00,VWS V14.00,2013-06-26 08:02:00,
2013-06-26 04:03:00,66.5,64.5,29.81,East,100,0.0,8.2,93,0.05,,BKN,0.00,VWS V14.00,2013-06-26 08:03:00,
2013-06-26 04:07:00,66.5,64.5,29.81,East,100,0.0,8.2,93,0.05,,BKN,0.00,VWS V14.00,2013-06-26 08:07:00,
2013-06-26 04:12:00,66.5,64.5,29.81,East,100,0.0,8.2,93,0.05,,BKN,0.00,VWS V14.00,2013-06-26 08:12:00,
2013-06-26 04:32:00,67.3,65.1,29.80,South,169,0.7,8.2,93,0.05,,BKN,0.00,VWS V14.00,2013-06-26 08:32:00,
2013-06-26 04:33:00,67.3,65.1,29.80,South,169,0.7,8.2,93,0.05,,BKN,0.00,VWS V14.00,2013-06-26 08:33:00,
2013-06-26 04:37:00,67.3,65.1,29.80,South,169,0.7,8.2,93,0.05,,BKN,0.00,VWS V14.00,2013-06-26 08:37:00,
2013-06-26 04:42:00,67.3,65.1,29.80,South,169,0.7,8.2,93,0.05,,BKN,0.00,VWS V14.00,2013-06-26 08:42:00,
2013-06-26 06:57:00,68.6,66.7,29.83,SW,219,0.0,8.2,94,0.05,,BKN,0.00,VWS V14.00,2013-06-26 10:57:00,
2013-06-26 07:02:00,68.8,66.8,29.83,West,277,0.9,8.2,94,0.04,,BKN,0.00,VWS V14.00,2013-06-26 11:02:00,
2013-06-26 07:07:00,68.8,66.8,29.83,West,277,0.9,8.2,94,0.04,,BKN,0.00,VWS V14.00,2013-06-26 11:07:00,
2013-06-26 07:12:00,68.7,66.8,29.83,SW,233,0.0,8.2,94,0.04,,OVC,0.00,VWS V14.00,2013-06-26 11:12:00,
2013-06-26 07:13:00,68.7,66.8,29.83,SW,233,0.0,8.2,94,0.04,,OVC,0.00,VWS V14.00,2013-06-26 11:13:00,
2013-06-26 07:17:00,68.7,66.8,29.83,SW,233,0.0,8.2,94,0.04,,OVC,0.00,VWS V14.00,2013-06-26 11:17:00,
2013-06-26 07:22:00,68.7,66.8,29.83,SW,233,0.0,8.2,94,0.04,,OVC,0.00,VWS V14.00,2013-06-26 11:22:00,
2013-06-26 08:16:00,69.2,67.0,29.83,SW,236,0.0,8.2,93,0.04,,OVC,0.00,VWS V14.00,2013-06-26 12:16:00,
2013-06-26 08:18:00,69.2,67.0,29.83,SW,236,0.0,8.2,93,0.04,,OVC,0.00,VWS V14.00,2013-06-26 12:18:00,
2013-06-26 08:23:00,69.2,67.0,29.83,SW,236,0.0,8.2,93,0.04,,OVC,0.00,VWS V14.00,2013-06-26 12:23:00,
2013-06-26 09:17:00,69.9,66.9,29.84,WSW,253,3.9,8.2,90,0.04,,OVC,0.00,VWS V14.00,2013-06-26 13:17:00,
2013-06-26 09:18:00,69.9,66.9,29.84,WSW,253,3.9,8.2,90,0.04,,OVC,0.00,VWS V14.00,2013-06-26 13:18:00,
2013-06-26 09:23:00,69.9,66.9,29.84,WSW,253,3.9,8.2,90,0.04,,OVC,0.00,VWS V14.00,2013-06-26 13:23:00,
2013-06-26 09:33:00,70.1,66.7,29.84,SW,215,2.7,8.2,89,0.03,,OVC,0.00,VWS V14.00,2013-06-26 13:33:00,
2013-06-26 09:38:00,70.4,66.9,29.84,WSW,240,3.2,8.2,89,0.02,,OVC,0.00,VWS V14.00,2013-06-26 13:38:00,
2013-06-26 09:43:00,70.5,66.8,29.84,West,273,4.4,8.2,88,0.02,,OVC,0.00,VWS V14.00,2013-06-26 13:43:00,
2013-06-26 09:48:00,70.5,66.8,29.84,West,262,2.2,8.2,88,0.02,,OVC,0.00,VWS V14.00,2013-06-26 13:48:00,
2013-06-26 09:53:00,71.0,67.3,29.84,WSW,246,2.2,8.2,88,0.02,,OVC,0.00,VWS V14.00,2013-06-26 13:53:00,
2013-06-26 09:58:00,71.0,66.8,29.84,South,170,3.9,6.1,87,0.02,,OVC,0.00,VWS V14.00,2013-06-26 13:58:00,
2013-06-26 10:03:00,71.1,66.7,29.84,WSW,245,3.8,6.1,86,0.02,,OVC,0.00,VWS V14.00,2013-06-26 14:03:00,
2013-06-26 10:08:00,71.1,66.7,29.84,WSW,239,1.5,6.1,86,0.02,,OVC,0.00,VWS V14.00,2013-06-26 14:08:00,
2013-06-26 10:13:00,71.0,66.5,29.84,SW,226,1.9,6.1,86,0.01,,OVC,0.00,VWS V14.00,2013-06-26 14:13:00,
2013-06-26 10:18:00,71.1,66.8,29.84,SSW,208,2.4,6.1,86,0.01,,OVC,0.00,VWS V14.00,2013-06-26 14:18:00,
2013-06-26 10:23:00,71.0,66.5,29.84,WSW,256,2.7,7.8,86,0.01,,OVC,0.00,VWS V14.00,2013-06-26 14:23:00,
2013-06-26 10:28:00,71.0,66.5,29.84,WSW,239,3.2,6.8,86,0.01,,OVC,0.00,VWS V14.00,2013-06-26 14:28:00,
2013-06-26 10:33:00,71.2,66.6,29.84,SSW,212,3.5,8.9,85,0.01,,OVC,0.00,VWS V14.00,2013-06-26 14:33:00,
2013-06-26 10:38:00,71.3,66.6,29.84,WSW,239,4.5,8.9,85,0.01,,OVC,0.00,VWS V14.00,2013-06-26 14:38:00,
2013-06-26 10:43:00,71.8,66.9,29.83,SSW,210,3.5,8.9,85,0.01,,OVC,0.00,VWS V14.00,2013-06-26 14:43:00,
2013-06-26 10:48:00,72.7,67.5,29.84,SSW,205,2.4,9.9,84,0.01,,OVC,0.00,VWS V14.00,2013-06-26 14:48:00,
2013-06-26 10:53:00,72.9,66.6,29.84,WSW,257,5.7,9.9,81,0.01,,OVC,0.00,VWS V14.00,2013-06-26 14:53:00,
2013-06-26 10:58:00,72.9,66.6,29.84,West,274,5.3,5.6,81,0.01,,OVC,0.00,VWS V14.00,2013-06-26 14:58:00,
2013-06-26 11:00:00,71.1,66.9,29.84,SSW,207,6.1,8.2,86,0.02,,SCT,0.00,VWS V14.00,2013-06-26 15:00:00,
2013-06-26 11:03:00,73.0,67.0,29.84,SW,232,2.5,5.6,82,0.01,,OVC,0.00,VWS V14.00,2013-06-26 15:03:00,
2013-06-26 11:08:00,72.9,66.6,29.84,West,263,3.8,5.7,80,0.01,,OVC,0.00,VWS V14.00,2013-06-26 15:08:00,
2013-06-26 11:13:00,73.0,66.5,29.84,WNW,294,4.0,5.7,80,0.01,,OVC,0.00,VWS V14.00,2013-06-26 15:13:00,
2013-06-26 11:18:00,72.8,66.3,29.84,SW,225,1.8,7.8,80,0.00,,OVC,0.00,VWS V14.00,2013-06-26 15:18:00,
2013-06-26 11:23:00,72.8,66.5,29.84,SW,219,3.5,8.6,81,0.00,,OVC,0.00,VWS V14.00,2013-06-26 15:23:00,
2013-06-26 11:28:00,73.0,66.9,29.83,South,179,2.7,5.1,81,0.00,,OVC,0.00,VWS V14.00,2013-06-26 15:28:00,
2013-06-26 11:30:00,71.0,66.5,29.84,South,177,6.8,8.6,86,0.01,,SCT,0.00,VWS V14.00,2013-06-26 15:30:00,
2013-06-26 11:33:00,73.2,66.8,29.83,SW,235,3.0,9.9,80,0.00,,OVC,0.00,VWS V14.00,2013-06-26 15:33:00,
2013-06-26 11:38:00,73.3,66.8,29.83,WSW,242,1.8,9.9,80,0.00,,OVC,0.00,VWS V14.00,2013-06-26 15:38:00,
2013-06-26 11:43:00,73.1,66.4,29.83,WSW,239,3.5,9.9,80,0.00,,OVC,0.00,VWS V14.00,2013-06-26 15:43:00,
2013-06-26 11:48:00,73.2,66.7,29.83,WSW,250,2.4,9.9,80,0.00,,OVC,0.00,VWS V14.00,2013-06-26 15:48:00,
2013-06-26 11:53:00,73.6,67.1,29.83,SSW,201,6.7,9.9,80,0.00,,OVC,0.00,VWS V14.00,2013-06-26 15:53:00,
2013-06-26 11:58:00,73.7,67.0,29.83,SSW,212,4.5,4.7,80,0.00,,OVC,0.00,VWS V14.00,2013-06-26 15:58:00,
2013-06-26 12:00:00,73.0,66.7,29.84,West,263,2.9,9.9,81,0.01,,SCT,0.00,VWS V14.00,2013-06-26 16:00:00,
2013-06-26 12:03:00,73.6,66.7,29.83,South,191,2.9,8.9,79,0.00,,OVC,0.00,VWS V14.00,2013-06-26 16:03:00,
2013-06-26 12:08:00,73.5,66.7,29.83,SSW,205,4.5,8.9,79,0.00,,OVC,0.00,VWS V14.00,2013-06-26 16:08:00,
2013-06-26 12:13:00,73.9,66.7,29.82,WSW,243,3.7,9.3,78,0.00,,OVC,0.00,VWS V14.00,2013-06-26 16:13:00,
2013-06-26 12:18:00,74.0,66.9,29.83,WSW,255,4.7,9.3,79,0.00,,OVC,0.00,VWS V14.00,2013-06-26 16:18:00,
2013-06-26 12:23:00,74.1,66.6,29.83,WSW,252,4.3,9.3,77,0.00,,OVC,0.00,VWS V14.00,2013-06-26 16:23:00,
2013-06-26 12:28:00,74.6,67.7,29.83,SW,232,1.2,6.1,79,0.00,,OVC,0.00,VWS V14.00,2013-06-26 16:28:00,
2013-06-26 12:30:00,72.8,66.7,29.83,South,173,2.3,8.6,81,0.00,,SCT,0.00,VWS V14.00,2013-06-26 16:30:00,
2013-06-26 12:33:00,75.1,67.3,29.83,SW,236,3.0,6.1,77,0.00,,OVC,0.00,VWS V14.00,2013-06-26 16:33:00,
2013-06-26 12:38:00,75.3,67.1,29.83,SW,233,5.4,6.1,76,0.00,,OVC,0.00,VWS V14.00,2013-06-26 16:38:00,
2013-06-26 12:43:00,75.8,67.0,29.83,South,179,5.3,6.6,74,0.00,,OVC,0.00,VWS V14.00,2013-06-26 16:43:00,
2013-06-26 12:48:00,75.7,66.9,29.83,SSE,158,6.1,9.3,74,0.00,,OVC,0.00,VWS V14.00,2013-06-26 16:48:00,
2013-06-26 12:53:00,75.5,66.1,29.83,West,260,3.9,13.0,73,0.00,,OVC,0.00,VWS V14.00,2013-06-26 16:53:00,
2013-06-26 12:59:00,75.5,66.6,29.83,SW,231,5.2,5.8,74,0.00,,OVC,0.00,VWS V14.00,2013-06-26 16:59:00,
2013-06-26 13:00:00,73.8,67.0,29.83,WSW,238,3.3,9.9,79,0.00,,SCT,0.00,VWS V14.00,2013-06-26 17:00:00,
2013-06-26 13:04:00,75.9,67.1,29.83,SW,224,2.5,7.4,74,0.00,,OVC,0.00,VWS V14.00,2013-06-26 17:04:00,
2013-06-26 13:09:00,75.8,67.1,29.82,WSW,257,3.7,8.8,74,0.00,,OVC,0.00,VWS V14.00,2013-06-26 17:09:00,
2013-06-26 13:14:00,75.7,67.0,29.82,WSW,255,4.3,8.8,74,0.00,,OVC,0.00,VWS V14.00,2013-06-26 17:14:00,
2013-06-26 13:19:00,75.7,66.7,29.82,SW,233,2.3,8.8,74,0.00,,OVC,0.00,VWS V14.00,2013-06-26 17:19:00,
2013-06-26 13:24:00,75.8,66.7,29.82,WSW,239,4.7,8.8,73,0.00,,OVC,0.00,VWS V14.00,2013-06-26 17:24:00,
2013-06-26 13:29:00,76.1,67.3,29.82,SSW,201,1.4,5.2,74,0.00,,OVC,0.00,VWS V14.00,2013-06-26 17:29:00,
2013-06-26 13:30:00,74.2,66.9,29.83,WSW,252,2.7,9.3,78,0.00,,SCT,0.00,VWS V14.00,2013-06-26 17:30:00,
2013-06-26 13:34:00,76.4,67.6,29.82,WSW,239,1.6,7.7,74,0.00,,OVC,0.00,VWS V14.00,2013-06-26 17:34:00,
2013-06-26 13:39:00,76.2,66.9,29.82,WSW,255,2.1,7.7,73,0.00,,OVC,0.00,VWS V14.00,2013-06-26 17:39:00,
2013-06-26 13:44:00,76.3,66.5,29.82,SE,129,4.5,7.7,72,0.00,,OVC,0.00,VWS V14.00,2013-06-26 17:44:00,
2013-06-26 13:49:00,76.9,67.0,29.82,SSW,193,5.7,8.6,72,0.00,,OVC,0.00,VWS V14.00,2013-06-26 17:49:00,
2013-06-26 13:54:00,77.4,67.3,29.82,West,264,4.4,8.6,71,0.00,,OVC,0.00,VWS V14.00,2013-06-26 17:54:00,
2013-06-26 13:59:00,77.1,66.8,29.82,West,259,2.2,4.2,71,0.00,,OVC,0.00,VWS V14.00,2013-06-26 17:59:00,
2013-06-26 14:00:00,75.5,66.6,29.83,West,276,4.1,13.0,74,0.00,,SCT,0.00,VWS V14.00,2013-06-26 18:00:00,
2013-06-26 14:04:00,77.0,67.1,29.82,West,278,2.3,5.6,72,0.00,,OVC,0.00,VWS V14.00,2013-06-26 18:04:00,
2013-06-26 14:09:00,77.1,67.2,29.82,West,281,4.6,5.6,72,0.00,,OVC,0.00,VWS V14.00,2013-06-26 18:09:00,
2013-06-26 14:14:00,76.9,66.9,29.82,WSW,256,2.2,6.6,71,0.00,,OVC,0.00,VWS V14.00,2013-06-26 18:14:00,
2013-06-26 14:19:00,77.0,67.1,29.82,WSW,240,3.2,6.6,71,0.00,,OVC,0.00,VWS V14.00,2013-06-26 18:19:00,
2013-06-26 14:24:00,77.1,67.0,29.82,SW,235,3.7,6.6,71,0.00,,OVC,0.00,VWS V14.00,2013-06-26 18:24:00,
2013-06-26 14:29:00,77.8,67.4,29.82,SW,233,3.4,6.1,70,0.00,,OVC,0.00,VWS V14.00,2013-06-26 18:29:00,
2013-06-26 14:30:00,75.9,66.8,29.82,West,276,5.0,8.8,74,0.00,,SCT,0.00,VWS V14.00,2013-06-26 18:30:00,
2013-06-26 14:34:00,78.4,67.7,29.82,SW,224,4.0,6.8,70,0.00,,OVC,0.00,VWS V14.00,2013-06-26 18:34:00,
2013-06-26 14:39:00,78.9,66.8,29.82,SW,225,2.4,6.8,67,0.00,,OVC,0.00,VWS V14.00,2013-06-26 18:39:00,
2013-06-26 14:44:00,79.0,66.0,29.82,NW,305,4.9,7.3,64,0.00,,OVC,0.00,VWS V14.00,2013-06-26 18:44:00,
2013-06-26 14:49:00,78.7,67.2,29.82,WSW,253,1.9,7.3,68,0.00,,OVC,0.00,VWS V14.00,2013-06-26 18:49:00,
2013-06-26 14:54:00,78.4,66.8,29.82,West,259,2.0,7.3,68,0.00,,OVC,0.00,VWS V14.00,2013-06-26 18:54:00,
2013-06-26 14:59:00,79.1,67.4,29.82,SW,232,4.2,10.5,67,0.00,,OVC,0.00,VWS V14.00,2013-06-26 18:59:00,
2013-06-26 15:00:00,77.2,66.4,29.82,SW,229,2.9,9.2,69,0.00,,SCT,0.00,VWS V14.00,2013-06-26 19:00:00,
2013-06-26 15:04:00,79.3,67.1,29.82,WSW,243,5.5,10.5,66,0.00,,OVC,0.00,VWS V14.00,2013-06-26 19:04:00,
2013-06-26 15:09:00,78.8,67.2,29.82,West,270,3.4,10.5,68,0.00,,OVC,0.00,VWS V14.00,2013-06-26 19:09:00,
2013-06-26 15:14:00,79.3,68.4,29.82,WNW,291,4.7,10.5,69,0.00,,OVC,0.00,VWS V14.00,2013-06-26 19:14:00,
2013-06-26 15:19:00,79.3,66.9,29.82,WSW,246,2.5,10.5,66,0.00,,OVC,0.00,VWS V14.00,2013-06-26 19:19:00,
2013-06-26 15:24:00,79.8,67.5,29.82,West,259,4.3,10.5,66,0.00,,OVC,0.00,VWS V14.00,2013-06-26 19:24:00,
2013-06-26 15:29:00,79.9,67.2,29.82,WSW,245,3.5,6.2,65,0.00,,OVC,0.00,VWS V14.00,2013-06-26 19:29:00,
2013-06-26 15:30:00,77.4,66.9,29.82,SSW,201,4.0,6.6,70,0.00,,SCT,0.00,VWS V14.00,2013-06-26 19:30:00,
2013-06-26 15:34:00,80.2,67.9,29.82,West,270,2.1,6.2,66,0.00,,OVC,0.00,VWS V14.00,2013-06-26 19:34:00,
2013-06-26 15:39:00,80.2,67.6,29.81,West,262,1.9,6.8,66,0.00,,OVC,0.00,VWS V14.00,2013-06-26 19:39:00,
2013-06-26 15:44:00,79.9,67.5,29.81,WSW,242,2.9,6.8,66,0.00,,OVC,0.00,VWS V14.00,2013-06-26 19:44:00,
2013-06-26 15:49:00,79.4,67.0,29.81,SW,224,1.5,7.4,66,0.00,,OVC,0.00,VWS V14.00,2013-06-26 19:49:00,
2013-06-26 15:54:00,79.5,67.8,29.81,SW,231,1.9,7.4,68,0.00,,OVC,0.00,VWS V14.00,2013-06-26 19:54:00,
2013-06-26 15:59:00,79.7,67.7,29.81,SW,231,1.8,5.3,67,0.00,,OVC,0.00,VWS V14.00,2013-06-26 19:59:00,
2013-06-26 16:00:00,78.8,68.0,29.82,West,269,2.2,7.3,70,0.00,,SCT,0.00,VWS V14.00,2013-06-26 20:00:00,
2013-06-26 16:04:00,79.7,67.2,29.81,NNW,328,2.3,6.6,66,0.00,,OVC,0.00,VWS V14.00,2013-06-26 20:04:00,
2013-06-26 16:09:00,79.4,67.3,29.81,WSW,256,2.3,6.6,66,0.00,,OVC,0.00,VWS V14.00,2013-06-26 20:09:00,
2013-06-26 16:14:00,79.1,67.6,29.81,SW,229,1.1,6.6,68,0.00,,OVC,0.00,VWS V14.00,2013-06-26 20:14:00,
2013-06-26 16:19:00,78.8,67.4,29.81,West,262,1.6,6.6,68,0.00,,OVC,0.00,VWS V14.00,2013-06-26 20:19:00,
2013-06-26 16:24:00,78.5,67.3,29.81,SSW,194,3.0,6.6,68,0.00,,OVC,0.00,VWS V14.00,2013-06-26 20:24:00,
2013-06-26 16:29:00,78.3,67.4,29.81,West,271,4.3,5.2,69,0.00,,OVC,0.00,VWS V14.00,2013-06-26 20:29:00,
2013-06-26 16:30:00,79.8,66.4,29.82,WSW,238,4.8,10.5,64,0.00,,SCT,0.00,VWS V14.00,2013-06-26 20:30:00,
2013-06-26 16:34:00,78.3,67.8,29.81,WSW,245,1.2,5.2,70,0.00,,OVC,0.00,VWS V14.00,2013-06-26 20:34:00,
2013-06-26 16:39:00,78.1,67.7,29.81,SW,233,2.0,5.2,70,0.00,,OVC,0.00,VWS V14.00,2013-06-26 20:39:00,
2013-06-26 16:44:00,77.9,67.8,29.82,WSW,250,2.4,5.2,71,0.00,,OVC,0.00,VWS V14.00,2013-06-26 20:44:00,
2013-06-26 16:49:00,77.7,67.5,29.81,WSW,239,1.4,5.2,71,0.00,,OVC,0.00,VWS V14.00,2013-06-26 20:49:00,
2013-06-26 16:54:00,77.4,67.6,29.82,WSW,240,2.0,5.3,72,0.00,,OVC,0.00,VWS V14.00,2013-06-26 20:54:00,
2013-06-26 16:59:00,77.2,67.6,29.81,SSW,201,3.2,4.0,72,0.00,,OVC,0.00,VWS V14.00,2013-06-26 20:59:00,
2013-06-26 17:00:00,79.7,67.5,29.81,SW,235,3.5,7.4,66,0.00,,SCT,0.00,VWS V14.00,2013-06-26 21:00:00,
2013-06-26 17:04:00,77.1,67.6,29.81,SW,233,3.1,6.5,72,0.00,,OVC,0.00,VWS V14.00,2013-06-26 21:04:00,
2013-06-26 17:09:00,77.0,67.4,29.82,WSW,248,2.3,8.2,72,0.00,,OVC,0.00,VWS V14.00,2013-06-26 21:09:00,
2013-06-26 17:14:00,77.1,67.3,29.83,West,271,5.2,9.1,72,0.00,,OVC,0.00,VWS V14.00,2013-06-26 21:14:00,
2013-06-26 17:19:00,77.2,67.2,29.82,SW,217,5.3,9.1,71,0.00,,OVC,0.00,VWS V14.00,2013-06-26 21:19:00,
2013-06-26 17:24:00,77.5,67.3,29.82,West,271,6.2,9.5,71,0.00,,OVC,0.00,VWS V14.00,2013-06-26 21:24:00,
2013-06-26 17:29:00,77.4,67.2,29.82,SSW,210,6.5,8.3,71,0.00,,OVC,0.00,VWS V14.00,2013-06-26 21:29:00,
2013-06-26 17:30:00,78.3,67.2,29.81,WSW,249,3.7,6.6,69,0.00,,SCT,0.00,VWS V14.00,2013-06-26 21:30:00,
2013-06-26 17:34:00,77.3,67.2,29.82,WSW,250,4.2,8.3,71,0.00,,OVC,0.00,VWS V14.00,2013-06-26 21:34:00,
2013-06-26 17:39:00,77.0,67.4,29.82,West,277,2.4,8.3,72,0.00,,OVC,0.00,VWS V14.00,2013-06-26 21:39:00,
2013-06-26 17:44:00,76.7,67.5,29.82,SW,224,3.2,8.3,73,0.00,,OVC,0.00,VWS V14.00,2013-06-26 21:44:00,
2013-06-26 17:49:00,76.4,67.3,29.82,WSW,257,2.4,8.3,74,0.00,,OVC,0.00,VWS V14.00,2013-06-26 21:49:00,
2013-06-26 17:54:00,76.2,67.3,29.82,SW,221,2.2,8.3,74,0.00,,OVC,0.00,VWS V14.00,2013-06-26 21:54:00,
2013-06-26 17:59:00,75.9,67.3,29.82,West,264,1.8,5.6,75,0.00,,OVC,0.00,VWS V14.00,2013-06-26 21:59:00,
2013-06-26 18:00:00,77.4,67.6,29.82,SW,236,3.3,5.3,72,0.00,,SCT,0.00,VWS V14.00,2013-06-26 22:00:00,
2013-06-26 18:04:00,75.9,67.3,29.81,WSW,248,3.3,6.5,75,0.00,,OVC,0.00,VWS V14.00,2013-06-26 22:04:00,
2013-06-26 18:09:00,75.8,67.4,29.82,WSW,256,4.0,6.5,75,0.00,,OVC,0.00,VWS V14.00,2013-06-26 22:09:00,
2013-06-26 18:14:00,75.5,67.2,29.82,SW,214,2.8,6.5,75,0.00,,OVC,0.00,VWS V14.00,2013-06-26 22:14:00,
2013-06-26 18:19:00,75.3,66.8,29.82,SW,224,3.1,6.7,75,0.00,,OVC,0.00,VWS V14.00,2013-06-26 22:19:00,
2013-06-26 18:24:00,75.5,66.5,29.81,WSW,239,4.2,8.3,74,0.00,,OVC,0.00,VWS V14.00,2013-06-26 22:24:00,
2013-06-26 18:29:00,76.1,67.0,29.81,SW,226,2.5,5.7,73,0.00,,OVC,0.00,VWS V14.00,2013-06-26 22:29:00,
2013-06-26 18:30:00,77.7,67.6,29.82,SW,232,4.7,9.5,71,0.00,,SCT,0.00,VWS V14.00,2013-06-26 22:30:00,
2013-06-26 18:34:00,76.4,66.6,29.81,SSE,160,5.4,7.2,72,0.00,,OVC,0.00,VWS V14.00,2013-06-26 22:34:00,
2013-06-26 18:39:00,76.6,66.3,29.81,South,188,2.9,8.1,71,0.00,,OVC,0.00,VWS V14.00,2013-06-26 22:39:00,
2013-06-26 18:44:00,76.7,66.4,29.82,SW,226,1.5,8.1,70,0.00,,OVC,0.00,VWS V14.00,2013-06-26 22:44:00,
2013-06-26 18:50:00,76.7,66.3,29.82,SSE,155,2.0,8.1,70,0.00,,OVC,0.00,VWS V14.00,2013-06-26 22:50:00,
2013-06-26 18:55:00,76.7,65.9,29.82,WSW,242,2.5,8.1,69,0.00,,OVC,0.00,VWS V14.00,2013-06-26 22:55:00,
2013-06-26 19:00:00,76.4,65.7,29.82,SSW,195,2.7,3.8,69,0.00,,OVC,0.00,VWS V14.00,2013-06-26 23:00:00,
2013-06-26 19:05:00,76.0,65.7,29.82,South,191,1.7,6.2,70,0.00,,OVC,0.00,VWS V14.00,2013-06-26 23:05:00,
2013-06-26 19:10:00,75.8,65.9,29.82,SSW,202,3.4,6.2,72,0.00,,OVC,0.00,VWS V14.00,2013-06-26 23:10:00,
2013-06-26 19:15:00,75.6,66.0,29.82,SW,222,2.2,6.2,72,0.00,,OVC,0.00,VWS V14.00,2013-06-26 23:15:00,
2013-06-26 19:20:00,75.4,66.1,29.82,WSW,248,1.9,6.2,73,0.00,,OVC,0.00,VWS V14.00,2013-06-26 23:20:00,
2013-06-26 19:25:00,75.5,66.4,29.82,SSE,156,0.3,6.2,73,0.00,,OVC,0.00,VWS V14.00,2013-06-26 23:25:00,
2013-06-26 19:30:00,75.4,66.4,29.82,SW,236,1.1,2.9,74,0.00,,OVC,0.00,VWS V14.00,2013-06-26 23:30:00,
2013-06-26 19:35:00,75.3,66.4,29.82,WSW,248,2.1,3.0,74,0.00,,OVC,0.00,VWS V14.00,2013-06-26 23:35:00,
2013-06-26 19:40:00,75.2,66.3,29.82,SSW,210,2.9,4.3,74,0.00,,OVC,0.00,VWS V14.00,2013-06-26 23:40:00,
2013-06-26 19:45:00,75.3,66.2,29.81,South,179,2.6,4.3,74,0.00,,OVC,0.00,VWS V14.00,2013-06-26 23:45:00,
2013-06-26 19:50:00,75.3,66.4,29.82,SW,235,1.0,4.3,74,0.00,,OVC,0.00,VWS V14.00,2013-06-26 23:50:00,
2013-06-26 19:55:00,75.4,66.5,29.82,WSW,240,0.9,4.3,74,0.00,,OVC,0.00,VWS V14.00,2013-06-26 23:55:00,
2013-06-26 20:00:00,75.2,66.3,29.82,WSW,242,0.9,3.3,74,0.00,,OVC,0.00,VWS V14.00,2013-06-27 00:00:00,
2013-06-26 20:05:00,75.0,66.2,29.82,WSW,239,1.3,3.3,74,0.00,,OVC,0.00,VWS V14.00,2013-06-27 00:05:00,
2013-06-26 20:10:00,74.9,66.1,29.82,WSW,240,1.5,3.3,74,0.00,,OVC,0.00,VWS V14.00,2013-06-27 00:10:00,
2013-06-26 20:15:00,74.9,66.3,29.83,SW,231,0.4,3.3,74,0.00,,OVC,0.00,VWS V14.00,2013-06-27 00:15:00,
2013-06-26 20:20:00,74.7,66.2,29.82,SW,232,2.1,3.3,75,0.00,,OVC,0.00,VWS V14.00,2013-06-27 00:20:00,
2013-06-26 20:25:00,74.6,66.2,29.82,SW,225,1.6,3.3,75,0.00,,OVC,0.00,VWS V14.00,2013-06-27 00:25:00,
2013-06-26 20:30:00,74.7,66.4,29.81,WSW,238,1.1,2.5,75,0.00,,OVC,0.00,VWS V14.00,2013-06-27 00:30:00,
2013-06-26 20:35:00,74.4,66.2,29.81,SW,226,1.2,2.9,76,0.00,,OVC,0.00,VWS V14.00,2013-06-27 00:35:00,
2013-06-26 20:40:00,74.4,66.3,29.82,SW,222,1.7,2.9,76,0.00,,BKN,0.00,VWS V14.00,2013-06-27 00:40:00,
2013-06-26 20:45:00,74.1,66.1,29.81,South,180,4.7,4.9,76,0.00,,BKN,0.00,VWS V14.00,2013-06-27 00:45:00,
2013-06-26 20:50:00,74.1,66.2,29.81,WSW,248,1.6,4.9,76,0.00,,BKN,0.00,VWS V14.00,2013-06-27 00:50:00,
2013-06-26 20:55:00,74.1,66.2,29.81,WSW,245,0.9,4.9,76,0.00,,BKN,0.00,VWS V14.00,2013-06-27 00:55:00,
2013-06-26 21:00:00,74.1,66.3,29.82,SSW,211,0.9,1.4,77,0.00,,BKN,0.00,VWS V14.00,2013-06-27 01:00:00,
2013-06-26 21:05:00,73.9,66.2,29.82,SW,224,1.7,1.9,77,0.00,,BKN,0.00,VWS V14.00,2013-06-27 01:05:00,
2013-06-26 21:10:00,73.9,66.3,29.82,South,177,2.4,3.8,77,0.00,,BKN,0.00,VWS V14.00,2013-06-27 01:10:00,
2013-06-26 21:15:00,73.8,66.4,29.81,South,191,0.0,3.8,78,0.00,,BKN,0.00,VWS V14.00,2013-06-27 01:15:00,
2013-06-26 21:20:00,73.4,66.2,29.82,SSW,204,1.0,3.8,78,0.00,,BKN,0.00,VWS V14.00,2013-06-27 01:20:00,
2013-06-26 21:25:00,73.1,66.2,29.82,SSE,148,0.0,3.8,79,0.00,,BKN,0.00,VWS V14.00,2013-06-27 01:25:00,
2013-06-26 21:30:00,72.7,66.2,29.82,SSE,148,0.0,0.0,80,0.00,,BKN,0.00,VWS V14.00,2013-06-27 01:30:00,
2013-06-26 21:35:00,72.4,66.2,29.82,SSW,195,1.1,2.2,81,0.00,,BKN,0.00,VWS V14.00,2013-06-27 01:35:00,
2013-06-26 21:40:00,72.3,66.3,29.82,SW,224,0.9,2.2,81,0.00,,BKN,0.00,VWS V14.00,2013-06-27 01:40:00,
2013-06-26 21:45:00,72.1,66.2,29.82,SW,217,0.4,2.2,82,0.00,,BKN,0.00,VWS V14.00,2013-06-27 01:45:00,
2013-06-26 21:50:00,72.0,66.2,29.82,SW,218,0.7,2.2,82,0.00,,BKN,0.00,VWS V14.00,2013-06-27 01:50:00,
2013-06-26 21:55:00,71.8,66.1,29.82,SSW,197,0.0,2.2,82,0.00,,BKN,0.00,VWS V14.00,2013-06-27 01:55:00,
2013-06-26 22:00:00,72.0,66.3,29.82,SSW,197,0.0,0.0,82,0.00,,BKN,0.00,VWS V14.00,2013-06-27 02:00:00,
2013-06-26 22:05:00,71.7,66.2,29.83,SSW,197,0.0,0.0,83,0.00,,BKN,0.00,VWS V14.00,2013-06-27 02:05:00,
2013-06-26 22:10:00,71.7,66.3,29.82,SSW,197,0.0,0.0,83,0.00,,BKN,0.00,VWS V14.00,2013-06-27 02:10:00,
2013-06-26 22:15:00,71.6,66.2,29.82,SSW,201,1.0,3.0,83,0.00,,BKN,0.00,VWS V14.00,2013-06-27 02:15:00,
2013-06-26 22:20:00,71.7,66.3,29.83,South,184,1.7,3.0,83,0.00,,BKN,0.00,VWS V14.00,2013-06-27 02:20:00,
2013-06-26 22:25:00,71.8,66.3,29.82,South,190,2.4,3.0,83,0.00,,BKN,0.00,VWS V14.00,2013-06-27 02:25:00,
2013-06-26 22:30:00,71.8,66.3,29.82,SW,226,1.4,3.4,83,0.00,,BKN,0.00,VWS V14.00,2013-06-27 02:30:00,
2013-06-26 22:35:00,71.9,66.3,29.82,SSW,207,1.1,3.5,83,0.00,,BKN,0.00,VWS V14.00,2013-06-27 02:35:00,
2013-06-26 22:40:00,72.0,66.4,29.82,SW,226,2.1,3.5,82,0.00,,BKN,0.00,VWS V14.00,2013-06-27 02:40:00,
2013-06-26 22:45:00,71.7,66.1,29.82,SW,225,1.5,3.5,82,0.00,,BKN,0.00,VWS V14.00,2013-06-27 02:45:00,
2013-06-26 22:50:00,71.6,66.1,29.83,South,174,1.2,3.5,83,0.00,,BKN,0.00,VWS V14.00,2013-06-27 02:50:00,
2013-06-26 22:55:00,71.5,66.0,29.82,SW,233,2.0,3.5,83,0.00,,BKN,0.00,VWS V14.00,2013-06-27 02:55:00,
2013-06-26 23:00:00,71.5,66.0,29.82,WSW,240,1.6,3.6,83,0.00,,BKN,0.00,VWS V14.00,2013-06-27 03:00:00,
2013-06-26 23:05:00,71.4,65.9,29.83,SW,225,1.2,3.6,83,0.00,,BKN,0.00,VWS V14.00,2013-06-27 03:05:00,
2013-06-26 23:10:00,71.4,66.0,29.83,SW,228,1.1,3.6,83,0.00,,BKN,0.00,VWS V14.00,2013-06-27 03:10:00,
2013-06-26 23:15:00,71.0,65.7,29.83,SW,226,2.1,3.6,83,0.00,,BKN,0.00,VWS V14.00,2013-06-27 03:15:00,
2013-06-26 23:20:00,71.1,65.8,29.83,WSW,238,1.6,3.6,83,0.00,,BKN,0.00,VWS V14.00,2013-06-27 03:20:00,
2013-06-26 23:25:00,70.9,65.7,29.83,WSW,256,1.8,3.6,84,0.00,,BKN,0.00,VWS V14.00,2013-06-27 03:25:00,
2013-06-26 23:30:00,70.8,65.6,29.83,SSW,208,1.5,3.9,84,0.00,,BKN,0.00,VWS V14.00,2013-06-27 03:30:00,
2013-06-26 23:35:00,70.8,65.7,29.83,SW,235,1.7,3.9,84,0.00,,BKN,0.00,VWS V14.00,2013-06-27 03:35:00,
2013-06-26 23:40:00,70.5,65.4,29.84,SW,225,2.1,3.9,84,0.00,,BKN,0.00,VWS V14.00,2013-06-27 03:40:00,
2013-06-26 23:45:00,70.5,65.5,29.84,SW,231,2.1,3.9,84,0.00,,BKN,0.00,VWS V14.00,2013-06-27 03:45:00,
2013-06-26 23:50:00,70.4,65.3,29.84,WSW,245,1.1,3.9,84,0.00,,BKN,0.00,VWS V14.00,2013-06-27 03:50:00,
2013-06-26 23:55:00,70.3,65.1,29.84,SW,235,2.2,3.9,84,0.00,,BKN,0.00,VWS V14.00,2013-06-27 03:55:00,